Regional Weather Roundup
Issued by NWS

Home | Current Version | Previous Version | Graphics & Text | Print | Product List | Glossary On
Versions: 1 2 3 4 5 6 7 8 9 10 11 12 13 14 15 16 17 18 19 20 21 22 23 24 25 26 27 28 29 30 31 32 33 34 35 36 37 38 39 40 41 42 43 44 45 46 47 48 49 50
000
ASUS43 KLOT 230409
RWRIL

ILLINOIS REGIONAL WEATHER ROUNDUP
NATIONAL WEATHER SERVICE CHICAGO/ROMEOVILLE IL
1100 PM CDT THU JUN 22 2017

NOTE: "FAIR" INDICATES FEW OR NO CLOUDS BELOW 12,000 FEET WITH NO
SIGNIFICANT WEATHER AND/OR OBSTRUCTIONS TO VISIBILITY.

* THESE STATIONS ARE NOT UNDER NWS QUALITY CONTROL. THEY ALSO MAY NOT
  REPORT WEATHER SUCH AS PRECIPITATION OR FOG.

ILZ001-002-007-009-015-016-024-230500-
NORTHWEST ILLINOIS

CITY           SKY/WX    TMP DP  RH WIND       PRES   REMARKS
MOLINE         CLEAR     76  70  82 CALM      29.70R
STERLING*      MOCLDY    77  72  84 CALM      29.71S
SAVANNA*       CLEAR     76  72  87 S7        29.70S
$$

ILZ003-004-008-010-011-017-018-230500-
NORTH CENTRAL ILLINOIS

CITY           SKY/WX    TMP DP  RH WIND       PRES   REMARKS
ROCKFORD       MOCLDY    79  70  74 SW8       29.71F HX  82
FREEPORT*      CLOUDY    75  70  86 S10       29.71F
ROCHELLE*      CLOUDY    76  72  88 S13       29.72S
DE KALB*       CLOUDY    74  72  92 S14       29.73F
PERU*          CLOUDY    75  70  86 S13       29.74S
$$

ILZ005-006-012>014-019>023-230500-
NORTHEAST ILLINOIS

CITY           SKY/WX    TMP DP  RH WIND       PRES   REMARKS
CHICAGO-OHARE  CLOUDY    78  70  76 SW15      29.72S HX  80
CHICAGO-MIDWAY CLOUDY    78  71  79 S10G18    29.73F HX  80
AURORA         MOCLDY    76  72  87 S12       29.73F
LANSING*       CLOUDY    75  68  78 S14       29.75F
JOLIET*        CLOUDY    77  73  85 S9G16     29.74S
WAUKEGAN       TSTM      75  74  96 S18       29.70F FOG
DUPAGE AIRPORT CLOUDY    76  73  91 S10G22    29.73R
WHEELING       CLOUDY    77  73  87 S10G23    29.74R THUNDER
MORRIS*        CLOUDY    76  71  85 S10       29.73S
ROMEOVILLE*    CLOUDY    76  68  77 S12       29.74S
NORTHERLY ISL    N/A     77  68  73 S12         N/A
$$

LMZ740>746-230500-
SOUTHERN LAKE MICHIGAN

STATION/POSITION SKY/WX   TEMP    WIND        PRES    VSBY  WAVE
                          AIR SEA DIR/SP/G                  HT/PER
                          (F)     (DEG/KT/KT) (MB)    (MI)  (FT/S)
SOUTHERN BUOY              67 61  210/ 12/ 16 1006.1          2/ 3
WILMETTE HARBOR            73 65  200/ 12/ 16   N/A           2/ 3
HARRISON CRIB              77     200/ 21/ 22   N/A
BURNHAM HARBOR             77                   N/A
CALUMET HARBOR             76     180/ 10/ 14 1006.8F
BURNS HARBOR               75     190/ 14/ 19 1008.1R
MICHIGAN CITY              75     180/ 11/ 14   N/A
MICHIGAN CITY 6N           73 68  190/ 12/ 16   N/A           2/ 3
ST. JOSEPH                 73 69  210/ 14/ 16 1007.2          2/ 3
$$

ILZ025>027-034>036-040-047-049-050-058-095>099-230500-
WEST-CENTRAL ILLINOIS

CITY           SKY/WX    TMP DP  RH WIND       PRES   REMARKS
QUINCY         CLEAR     77  72  84 S6        29.71S
GALESBURG*     CLOUDY    76  71  87 SE3       29.73S
MACOMB*        MOCLDY    74  72  93 S3        29.74F
JACKSONVILLE*  CLEAR     76  73  88 S8        29.74S
PITTSFIELD*    CLEAR     75  73  92 S5        29.73F
$$

ILZ028>032-037-038-041>044-048-051>054-059>061-230500-
CENTRAL ILLINOIS

CITY           SKY/WX    TMP DP  RH WIND       PRES   REMARKS
PONTIAC        CLOUDY    74  74  98 S10       29.75F
BLOOMINGTON    CLOUDY    74  72  93 S14       29.76F
DECATUR        CLOUDY    74  72  93 S12       29.75F
PEORIA         CLOUDY    75  73  93 S9        29.74R
LACON*         CLOUDY    75  73  93 S7        29.73R
LINCOLN*       CLOUDY    77  74  93 S9        29.74S
SPRINGFIELD    MOCLDY    77  75  93 S10       29.74S
TAYLORVILLE    CLOUDY    73  73  98 S10       29.75F
$$

ILZ033-039-045-046-055>057-062-063-230500-
EAST-CENTRAL ILLINOIS

CITY           SKY/WX    TMP DP  RH WIND       PRES   REMARKS
CHAMPAIGN      CLOUDY    74  71  91 S10       29.77F
RANTOUL*       CLOUDY    75  73  96 S8        29.77S
MATTOON        CLOUDY    74  73  97 S10       29.77S
PARIS*         CLOUDY    73  72  95 S12       29.80S
$$

ILZ079-100>102-230500-
SOUTHWEST ILLINOIS

CITY           SKY/WX    TMP DP  RH WIND       PRES   REMARKS
ALTON          MOCLDY    75  73  94 SE6       29.76S
BELLEVILLE     CLOUDY    76  74  94 SE6       29.76F
CAHOKIA*       CLOUDY    79  73  82 SE6       29.74F HX  82
SPARTA*        CLOUDY    76  74  93 SE5       29.77F
$$

ILZ064>066-069>071-074>076-080>082-084>086-088>090-092>094-230500-
SOUTH-CENTRAL ILLINOIS

CITY           SKY/WX    TMP DP  RH WIND       PRES   REMARKS
CARBONDALE     CLOUDY    76  76 100 SE6       29.77F
CAIRO*         LGT RAIN  78  75  89 S9        29.77F HX  81
EFFINGHAM*     CLOUDY    74  74  98 SE8       29.80F
MARION         MOCLDY    77  77 100 SE3       29.78F
MT. VERNON     LGT RAIN  75  74  96 S6        29.78F
CENTRALIA*     CLOUDY    75  74  97 CALM      29.77F
SALEM*         CLOUDY    76  73  90 SE5       29.78F
METROPOLIS*    MOCLDY    80  74  83 S8        29.80F HX  84
$$

ILZ067-068-072-073-078-083-087-091-230500-
SOUTHEAST ILLINOIS

CITY           SKY/WX    TMP DP  RH WIND       PRES   REMARKS
LAWRENCEVILLE  CLOUDY    74  73  97 S9        29.81S
FLORA*         CLOUDY   N/A N/A N/A SE5       29.80S
FAIRFIELD*     CLOUDY    75  74  99 SE3       29.78S
HARRISBURG*    CLOUDY    76  75  99 CALM      29.79F
ROBINSON*      CLOUDY    73  72  96 S7        29.81S
CARMI*         CLOUDY    75  74  99 CALM      29.80R
$$

ABBREVIATIONS USED IN REMARKS
   TC - TEMPERATURE IN CELSIUS
  WCI - WIND CHILL INDEX
   HX - HEAT INDEX
  VSB - VISIBILITY
$$





USA.gov is the U.S. government's official web portal to all federal, state and local government web resources and services.